SCP
0 0 0 0 0 0 0 0 0 0 0 0 0 0 0 0 0 0 0 0 0 0 0 0 0 0 0 0 0 0 0 0 0 0 0 0 0 0 0 0 0 0 0 0
0 0 0 0 0 0 0 0 0 0 0 0 0 0 0 0 0 0 0 0 0 0 -0 -0 0 0 0 0 0 0 0 0 0 0 0 0 0 0 0 0 0 0 0 0
0 0 0 0 0 0 0 0 0 0 0 0 0 0 0 0 0 0 0 0 0 0 0 0 0 0 0 0 0 0 0 0 0 0 0 0 0 0 0 0 0 0 0 0
0 0 0 0 0 0 0 0 0 0 0 0 0 0 0 0 0 0 0 0 0 0 0 0 0 0 0 0 0 0 0 0 0 0 0 0 0 0 0 0 0 0 0 0
0 0 0 0 0 0 0 0 0 0 0 0 0 0 0 0 0 0 0 0 0 0 0 0 0 0 0 0 0 0 0 0 0 0 0 0 0 0 0 0 0 0 0 0
0 0 0 0 0 0 0 0 0 0 0 -0 0 0 0 0 0 0 0 0 0 0 0 0 0 0 0 0 0 0 0 0 0 0 0 0 0 0 0 0 0 0 0 0
0 0 0 0 0 0 0 0 0 0 0 0 0 0 0 0 0 0 0 0 0 0 0 0 0 0 0 0 0 0 0 0 0 0 0 0 0 0 0 0 0 0 0 0
0 0 0 0 0 0 0 0 0 0 0 0 0 0 0 0 0 0 0 0 0 0 0 0 0 0 0 -0 0 0 0 0 0 0 0 0 0 0 0 0 0 0 0 0
0 0 0 0 0 0 0 0 0 0 0 0 0 0 0 0 0 0 0 0 0 0 0 0 0 -0 0 -0 0 0 0 0 0 0 0 0 0 0 0 0 0 0 0 0
0 0 0 0 0 0 0 0 0 0 0 0 0 0 0 0 0 0 0 0 0 0 0 0 -0 -0 -0 -0 -0 0 0 0 0 0 0 0 0 0 0 0 0 0 0 0
0 0 0 0 0 0 0 0 0 0 0 0 0 0 0 0 0 0 0 0 0 0 0 -0 0 -0 -0 -0 -0 -0 0 0 0 0 0 0 0 0 0 0 0 0 0 0
0 0 0 0 0 0 0 0 0 0 0 0 0 0 0 0 0 0 0 0 0 0 0 0 -0 -0 0 -0 -0 -0 -0 0 0 0 0 0 0 0 0 0 0 0 -0 0
0 0 0 0 0 0 0 0 0 0 0 0 0 0 0 0 0 0 0 0 0 0 0 0 0 -0 -0 -0 -0 -0 -0 0 0 0 0 0 0 0 0 0 0 0 0 0
0 0 0 0 0 0 0 0 0 0 0 0 0 0 0 0 0 0 0 0 0 0 0 0 0 0 -0 -0 -0 -0 -0 0 0 0 0 0 0 0 0 0 0 0 0 0
0 0 0 0 0 0 0 0 0 0 0 0 0 0 0 0 0 0 0 0 0 0 0 0 0 0 -0 -0 -0 -0 -0 -0 0 0 0 0 0 0 0 0 0 0 0 0
0 0 0 0 0 0 0 0 0 0 0 -0 0 0 0 0 0 0 0 0 0 0 0 0 0 0 0 -0 -0 -0 -0 -0 0 0 0 0 0 0 0 0 0 0 0 0
0 0 0 0 0 0 0 0 0 0 0 0 0 0 0 0 0 0 0 0 0 0 0 0 0 0 -0 0 -0 -0 -0 -0 0 0 0 0 0 0 0 0 0 0 0 0
0 0 0 0 0 0 0 0 0 0 0 0 0 0 0 0 0 0 0 0 0 0 0 0 0 0 0 0 0 -0 0 0 0 0 0 0 0 0 0 0 0 0 0 0
0 0 0 0 0 0 0 0 0 0 0 0 0 0 0 0 0 0 0 0 0 0 0 0 0 0 0 0 0 0 0 0 0 0 0 0 0 0 0 0 0 0 0 0
0 0 0 0 0 0 0 0 0 0 -0 0 0 0 0 0 0 0 0 0 0 0 0 0 0 0 0 0 0 0 0 0 0 0 0 0 0 0 0 0 0 0 0 0
0 0 0 0 0 0 0 0 0 0 0 0 0 0 0 0 0 0 0 0 0 0 0 0 0 0 0 0 0 0 0 0 0 0 0 0 0 0 0 0 0 0 0 0
0 0 0 0 0 0 0 0 0 0 0 0 0 0 0 0 0 0 0 0 0 0 0 0 0 0 0 0 0 0 0 0 0 0 0 0 0 0 0 0 0 0 0 0
0 0 0 0 0 0 0 0 0 0 0 0 0 0 0 0 0 0 0 0 0 0 0 0 0 0 0 0 0 0 0 0 0 0 0 0 0 0 0 0 0 0 -0 0
0 0 0 0 0 0 0 0 0 0 0 0 0 0 0 0 0 0 0 0 0 0 0 0 0 0 0 0 0 0 0 0 0 0 0 0 0 0 0 0 0 0 -0 -0
0 0 0 0 0 0 0 0 0 0 0 0 0 0 0 0 0 0 -0 -0 -0 -0 0 0 0 0 0 0 0 0 0 0 0 0 0 0 0 0 -0 0 0 0 -0 -0
0 0 0 0 0 0 0 0 0 0 0 0 0 0 0 0 -0 0 -0 -0 -0 0 0 0 0 0 0 0 0 0 0 0 0 0 0 0 0 0 0 0 0 -0 -0 -0
Wind_Speed_500mb
6 1 5 8 9 10 17 23 30 38 32 24 27 44 33 7 2 4 9 25 37 51 64 71 65 64 62 54 53 52 52 50 49 46 46 49 50 49 51 64 65 63 57 70
0 3 3 8 10 15 19 22 24 22 10 36 29 35 34 13 8 9 20 35 52 69 74 66 65 64 57 57 54 51 51 50 49 48 47 48 44 41 39 49 59 63 63 50
3 6 5 5 12 17 26 11 30 40 51 19 19 23 12 18 13 14 23 49 65 72 70 65 62 63 59 55 52 55 58 54 51 50 46 47 49 45 37 50 53 45 49 55
8 2 6 12 8 14 12 26 40 37 18 11 12 13 23 6 11 5 43 61 70 70 66 64 64 61 57 57 56 54 54 55 49 50 47 46 45 45 41 39 40 42 51 50
6 7 8 7 5 11 16 38 38 17 11 15 7 10 12 4 9 28 48 70 76 72 69 70 67 63 60 51 56 50 50 47 44 47 42 40 48 43 38 32 42 40 52 50
10 4 6 7 20 8 25 25 23 9 7 9 8 12 13 13 15 41 58 73 73 70 65 62 61 60 56 50 53 44 41 35 32 40 37 38 38 32 32 30 40 42 53 43
6 5 2 4 12 7 20 19 10 6 8 18 8 16 7 7 17 38 49 70 69 63 61 60 60 61 60 55 52 45 37 29 13 19 22 27 29 29 28 31 32 35 43 61
7 5 6 2 3 6 7 7 6 13 19 23 19 10 11 4 25 51 54 61 62 62 60 59 59 58 55 52 49 45 38 27 17 9 16 28 19 25 26 31 33 37 37 47
6 6 7 3 2 2 4 5 4 9 13 8 7 12 26 6 29 44 52 63 63 62 63 64 60 54 55 51 48 45 40 33 21 15 16 22 24 23 25 31 29 34 34 26
2 11 3 4 4 2 3 3 4 6 11 15 17 21 12 29 37 34 38 52 60 63 62 67 62 56 54 52 49 42 35 32 27 19 18 28 37 35 34 41 36 38 36 25
5 1 3 4 13 4 7 6 5 4 7 9 14 10 4 15 24 32 35 53 58 61 61 66 62 55 51 49 48 41 36 34 28 23 21 24 25 32 37 32 32 37 34 26
8 3 10 6 5 1 5 6 7 6 2 11 15 18 10 6 16 34 42 52 55 56 60 61 56 51 49 47 46 43 37 33 29 24 22 22 22 26 31 35 33 23 34 36
7 5 10 7 5 5 9 13 16 8 7 22 12 12 11 9 23 36 39 49 53 58 62 61 56 52 48 46 44 40 37 34 31 27 26 22 23 24 24 26 28 29 32 42
6 7 13 15 12 3 14 18 21 18 11 22 28 39 32 12 16 27 41 43 48 50 56 58 59 54 48 45 41 38 33 28 25 23 22 21 23 23 22 22 23 26 39 42
6 10 12 27 31 30 33 30 25 31 35 17 31 17 30 25 14 14 31 37 52 47 56 58 58 59 52 47 41 35 31 27 20 15 11 12 12 12 15 19 25 23 35 36
8 5 5 13 13 13 25 34 32 31 32 38 42 49 26 9 13 20 28 38 45 50 53 54 54 55 55 51 45 39 33 27 18 12 9 3 4 8 11 15 15 31 34 41
11 5 3 11 8 17 16 16 20 13 18 14 17 13 9 6 10 14 26 29 38 43 42 47 48 46 51 53 48 48 44 29 26 22 22 17 15 21 22 13 28 40 42 49
10 6 2 11 9 9 3 6 7 16 24 30 25 11 10 10 9 18 20 24 31 33 34 36 41 39 41 46 49 53 58 49 49 43 38 29 39 40 39 45 54 58 74 79
13 7 5 7 7 17 17 10 9 10 15 15 33 17 13 8 6 19 15 15 17 23 28 30 34 36 35 38 43 51 61 64 68 66 61 52 51 56 59 60 64 66 65 66
8 10 8 4 9 10 4 8 5 2 12 9 16 14 18 17 7 4 9 5 6 14 23 29 32 31 31 31 35 41 50 56 65 66 66 65 65 64 66 66 58 61 63 64
9 9 23 18 11 18 16 17 11 2 4 16 22 22 26 11 3 9 11 8 1 9 19 26 32 35 33 32 29 29 33 45 46 44 47 49 50 53 48 49 48 53 53 52
19 20 12 11 14 20 27 15 13 0 4 16 23 25 25 17 17 15 16 13 6 3 13 21 28 32 31 30 28 28 28 32 33 33 36 38 39 38 41 43 44 44 43 44
9 14 10 22 15 1 45 9 34 6 7 17 28 30 29 26 25 23 22 17 11 5 8 16 23 29 30 28 25 24 22 22 23 23 23 27 27 28 28 29 30 30 29 30
12 14 9 3 16 38 45 58 47 33 28 18 30 33 36 32 28 27 25 21 17 11 7 10 15 22 25 23 23 23 21 18 16 15 16 18 20 19 17 15 14 16 19 18
6 26 12 14 35 37 68 62 65 66 50 34 34 38 41 35 32 29 28 25 21 14 11 9 8 12 18 18 18 18 18 18 17 15 13 11 12 12 11 10 13 13 11 8
25 25 15 24 38 36 42 41 33 43 62 64 43 47 47 41 33 31 29 26 21 16 14 9 5 5 11 13 14 16 16 16 15 14 13 11 11 11 10 10 13 12 12 13
Wind_Direction_500mb
44 111 18 358 357 324 311 309 300 301 314 303 295 295 293 343 177 210 306 322 321 319 317 315 311 309 306 302 296 294 290 285 276 266 259 253 243 250 247 250 246 247 255 250
59 193 49 310 305 314 310 298 297 313 263 322 296 292 294 206 251 287 322 326 322 321 320 318 315 313 309 304 300 297 291 286 276 266 255 243 243 247 249 251 249 244 250 253
290 57 327 291 321 332 328 296 315 310 322 274 296 271 192 214 238 276 315 327 327 326 323 321 319 313 313 308 302 298 293 284 273 266 253 245 237 241 241 247 249 244 238 245
281 104 303 306 284 353 311 347 316 315 322 308 21 291 318 140 239 286 331 330 329 331 326 322 320 316 314 310 305 302 298 296 277 263 250 237 235 237 242 252 243 240 242 237
67 281 288 267 338 339 268 319 304 312 282 312 165 265 326 197 317 330 327 333 336 330 327 321 320 318 315 313 312 311 302 295 280 256 242 234 233 235 240 241 249 241 244 234
259 306 263 313 315 295 311 303 296 249 251 256 103 5 291 9 338 326 331 337 333 327 322 318 317 317 316 319 318 318 311 302 288 258 239 223 230 236 242 247 245 254 246 244
261 203 188 305 324 157 354 331 327 296 288 307 155 311 318 16 323 335 329 330 330 327 323 321 320 320 322 325 324 323 327 321 322 270 228 220 228 234 247 255 265 265 260 238
324 267 187 46 12 310 346 337 1 308 320 312 298 243 317 202 331 334 328 331 331 331 327 325 323 322 324 324 325 327 333 330 325 216 204 201 213 238 246 251 253 249 266 249
298 253 142 152 341 242 96 312 16 268 254 268 236 253 271 224 340 334 336 338 336 335 332 329 327 327 326 326 326 331 333 332 321 283 256 231 224 236 243 245 249 250 249 258
102 288 135 133 206 145 275 73 253 199 299 310 308 295 281 345 335 338 340 341 336 336 336 335 333 333 334 332 335 333 332 329 324 305 283 264 247 249 251 253 259 252 243 262
158 247 155 200 201 184 181 212 213 285 265 302 311 321 83 343 341 342 338 339 337 336 338 341 339 340 338 340 343 340 334 329 319 305 286 267 261 251 251 252 252 246 241 253
176 291 271 263 145 21 225 252 224 268 237 257 272 278 145 16 14 352 339 339 337 339 342 346 347 346 348 346 348 349 341 333 326 313 295 283 276 260 252 249 246 234 231 244
173 206 294 212 148 169 235 227 225 260 280 256 275 277 185 15 10 349 339 342 338 342 348 353 356 356 353 354 354 355 352 343 332 315 303 294 282 271 260 255 242 232 220 250
207 250 243 261 316 348 257 249 228 229 259 269 246 278 293 355 337 342 337 341 342 343 349 355 1 4 3 2 360 1 360 353 339 323 310 291 271 266 257 239 227 227 252 225
232 261 264 264 269 270 267 260 247 234 232 250 272 285 290 312 292 296 313 335 350 346 354 2 8 15 15 15 14 13 11 6 357 347 319 295 279 251 244 230 209 211 221 225
208 273 327 283 277 276 272 261 243 232 250 250 263 279 272 241 262 284 308 331 340 343 353 360 8 17 23 25 26 27 28 30 20 20 36 357 242 158 165 182 237 216 197 176
182 236 285 269 342 314 272 240 203 206 203 211 221 242 151 216 231 286 308 329 330 337 350 357 6 11 25 32 35 44 51 59 66 74 86 95 109 131 132 164 159 163 150 148
161 177 210 290 309 252 289 194 209 226 252 215 255 227 197 241 244 272 285 319 327 336 351 3 6 12 25 35 42 51 62 65 73 76 89 98 101 114 128 137 135 136 129 125
202 187 240 266 274 301 282 185 197 201 291 235 228 243 208 204 267 256 255 312 325 345 357 10 14 10 19 32 40 47 57 62 67 70 77 86 90 102 110 114 116 114 117 116
160 241 223 174 252 257 13 139 146 146 278 158 192 198 169 156 244 102 223 263 322 357 7 17 22 21 19 30 43 43 49 54 60 66 70 77 81 84 88 90 86 91 92 98
168 197 223 218 262 274 259 150 151 196 317 167 180 174 167 192 258 169 185 194 143 21 17 19 22 23 27 26 37 53 57 61 58 62 70 77 83 87 95 101 101 104 108 112
178 172 197 188 219 270 143 124 205 25 161 185 180 182 188 193 187 187 188 193 186 8 14 18 20 21 23 27 28 41 52 65 69 68 74 81 86 93 99 104 109 110 111 110
228 211 188 202 216 127 193 244 212 248 227 204 195 196 198 196 197 193 195 204 206 243 348 4 11 16 19 23 32 38 50 61 69 79 87 92 93 96 98 100 98 100 101 107
227 175 231 155 233 239 241 241 245 239 236 239 211 205 201 203 203 199 202 209 221 239 296 342 0 9 17 28 30 34 41 50 65 75 82 92 100 101 99 92 87 88 89 80
154 156 205 255 271 274 267 252 255 247 238 233 216 211 209 207 206 204 207 214 225 233 255 286 333 3 17 25 33 39 40 44 51 61 72 79 88 93 94 98 90 81 97 94
184 216 212 249 257 247 266 273 282 236 239 228 219 211 209 211 209 207 212 219 229 235 243 254 284 356 22 31 32 37 46 54 59 59 55 58 64 79 86 88 75 67 53 41
Wind_Speed_850mb
6 1 5 8 9 10 17 23 30 38 32 24 27 44 33 7 2 4 9 25 37 51 64 71 65 64 62 54 53 52 52 50 49 46 46 49 50 49 51 64 65 63 57 70
0 3 3 8 10 15 19 22 24 22 10 36 29 35 34 13 8 9 20 35 52 69 74 66 65 64 57 57 54 51 51 50 49 48 47 48 44 41 39 49 59 63 63 50
3 6 5 5 12 17 26 11 30 40 51 19 19 23 12 18 13 14 23 49 65 72 70 65 62 63 59 55 52 55 58 54 51 50 46 47 49 45 37 50 53 45 49 55
8 2 6 12 8 14 12 26 40 37 18 11 12 13 23 6 11 5 43 61 70 70 66 64 64 61 57 57 56 54 54 55 49 50 47 46 45 45 41 39 40 42 51 50
6 7 8 7 5 11 16 38 38 17 11 15 7 10 12 4 9 28 48 70 76 72 69 70 67 63 60 51 56 50 50 47 44 47 42 40 48 43 38 32 42 40 52 50
10 4 6 7 20 8 25 25 23 9 7 9 8 12 13 13 15 41 58 73 73 70 65 62 61 60 56 50 53 44 41 35 32 40 37 38 38 32 32 30 40 42 53 43
6 5 2 4 12 7 20 19 10 6 8 18 8 16 7 7 17 38 49 70 69 63 61 60 60 61 60 55 52 45 37 29 13 19 22 27 29 29 28 31 32 35 43 61
7 5 6 2 3 6 7 7 6 13 19 23 19 10 11 4 25 51 54 61 62 62 60 59 59 58 55 52 49 45 38 27 17 9 16 28 19 25 26 31 33 37 37 47
6 6 7 3 2 2 4 5 4 9 13 8 7 12 26 6 29 44 52 63 63 62 63 64 60 54 55 51 48 45 40 33 21 15 16 22 24 23 25 31 29 34 34 26
2 11 3 4 4 2 3 3 4 6 11 15 17 21 12 29 37 34 38 52 60 63 62 67 62 56 54 52 49 42 35 32 27 19 18 28 37 35 34 41 36 38 36 25
5 1 3 4 13 4 7 6 5 4 7 9 14 10 4 15 24 32 35 53 58 61 61 66 62 55 51 49 48 41 36 34 28 23 21 24 25 32 37 32 32 37 34 26
8 3 10 6 5 1 5 6 7 6 2 11 15 18 10 6 16 34 42 52 55 56 60 61 56 51 49 47 46 43 37 33 29 24 22 22 22 26 31 35 33 23 34 36
7 5 10 7 5 5 9 13 16 8 7 22 12 12 11 9 23 36 39 49 53 58 62 61 56 52 48 46 44 40 37 34 31 27 26 22 23 24 24 26 28 29 32 42
6 7 13 15 12 3 14 18 21 18 11 22 28 39 32 12 16 27 41 43 48 50 56 58 59 54 48 45 41 38 33 28 25 23 22 21 23 23 22 22 23 26 39 42
6 10 12 27 31 30 33 30 25 31 35 17 31 17 30 25 14 14 31 37 52 47 56 58 58 59 52 47 41 35 31 27 20 15 11 12 12 12 15 19 25 23 35 36
8 5 5 13 13 13 25 34 32 31 32 38 42 49 26 9 13 20 28 38 45 50 53 54 54 55 55 51 45 39 33 27 18 12 9 3 4 8 11 15 15 31 34 41
11 5 3 11 8 17 16 16 20 13 18 14 17 13 9 6 10 14 26 29 38 43 42 47 48 46 51 53 48 48 44 29 26 22 22 17 15 21 22 13 28 40 42 49
10 6 2 11 9 9 3 6 7 16 24 30 25 11 10 10 9 18 20 24 31 33 34 36 41 39 41 46 49 53 58 49 49 43 38 29 39 40 39 45 54 58 74 79
13 7 5 7 7 17 17 10 9 10 15 15 33 17 13 8 6 19 15 15 17 23 28 30 34 36 35 38 43 51 61 64 68 66 61 52 51 56 59 60 64 66 65 66
8 10 8 4 9 10 4 8 5 2 12 9 16 14 18 17 7 4 9 5 6 14 23 29 32 31 31 31 35 41 50 56 65 66 66 65 65 64 66 66 58 61 63 64
9 9 23 18 11 18 16 17 11 2 4 16 22 22 26 11 3 9 11 8 1 9 19 26 32 35 33 32 29 29 33 45 46 44 47 49 50 53 48 49 48 53 53 52
19 20 12 11 14 20 27 15 13 0 4 16 23 25 25 17 17 15 16 13 6 3 13 21 28 32 31 30 28 28 28 32 33 33 36 38 39 38 41 43 44 44 43 44
9 14 10 22 15 1 45 9 34 6 7 17 28 30 29 26 25 23 22 17 11 5 8 16 23 29 30 28 25 24 22 22 23 23 23 27 27 28 28 29 30 30 29 30
12 14 9 3 16 38 45 58 47 33 28 18 30 33 36 32 28 27 25 21 17 11 7 10 15 22 25 23 23 23 21 18 16 15 16 18 20 19 17 15 14 16 19 18
6 26 12 14 35 37 68 62 65 66 50 34 34 38 41 35 32 29 28 25 21 14 11 9 8 12 18 18 18 18 18 18 17 15 13 11 12 12 11 10 13 13 11 8
25 25 15 24 38 36 42 41 33 43 62 64 43 47 47 41 33 31 29 26 21 16 14 9 5 5 11 13 14 16 16 16 15 14 13 11 11 11 10 10 13 12 12 13
Wind_Direction_850mb
44 111 18 358 357 324 311 309 300 301 314 303 295 295 293 343 177 210 306 322 321 319 317 315 311 309 306 302 296 294 290 285 276 266 259 253 243 250 247 250 246 247 255 250
59 193 49 310 305 314 310 298 297 313 263 322 296 292 294 206 251 287 322 326 322 321 320 318 315 313 309 304 300 297 291 286 276 266 255 243 243 247 249 251 249 244 250 253
290 57 327 291 321 332 328 296 315 310 322 274 296 271 192 214 238 276 315 327 327 326 323 321 319 313 313 308 302 298 293 284 273 266 253 245 237 241 241 247 249 244 238 245
281 104 303 306 284 353 311 347 316 315 322 308 21 291 318 140 239 286 331 330 329 331 326 322 320 316 314 310 305 302 298 296 277 263 250 237 235 237 242 252 243 240 242 237
67 281 288 267 338 339 268 319 304 312 282 312 165 265 326 197 317 330 327 333 336 330 327 321 320 318 315 313 312 311 302 295 280 256 242 234 233 235 240 241 249 241 244 234
259 306 263 313 315 295 311 303 296 249 251 256 103 5 291 9 338 326 331 337 333 327 322 318 317 317 316 319 318 318 311 302 288 258 239 223 230 236 242 247 245 254 246 244
261 203 188 305 324 157 354 331 327 296 288 307 155 311 318 16 323 335 329 330 330 327 323 321 320 320 322 325 324 323 327 321 322 270 228 220 228 234 247 255 265 265 260 238
324 267 187 46 12 310 346 337 1 308 320 312 298 243 317 202 331 334 328 331 331 331 327 325 323 322 324 324 325 327 333 330 325 216 204 201 213 238 246 251 253 249 266 249
298 253 142 152 341 242 96 312 16 268 254 268 236 253 271 224 340 334 336 338 336 335 332 329 327 327 326 326 326 331 333 332 321 283 256 231 224 236 243 245 249 250 249 258
102 288 135 133 206 145 275 73 253 199 299 310 308 295 281 345 335 338 340 341 336 336 336 335 333 333 334 332 335 333 332 329 324 305 283 264 247 249 251 253 259 252 243 262
158 247 155 200 201 184 181 212 213 285 265 302 311 321 83 343 341 342 338 339 337 336 338 341 339 340 338 340 343 340 334 329 319 305 286 267 261 251 251 252 252 246 241 253
176 291 271 263 145 21 225 252 224 268 237 257 272 278 145 16 14 352 339 339 337 339 342 346 347 346 348 346 348 349 341 333 326 313 295 283 276 260 252 249 246 234 231 244
173 206 294 212 148 169 235 227 225 260 280 256 275 277 185 15 10 349 339 342 338 342 348 353 356 356 353 354 354 355 352 343 332 315 303 294 282 271 260 255 242 232 220 250
207 250 243 261 316 348 257 249 228 229 259 269 246 278 293 355 337 342 337 341 342 343 349 355 1 4 3 2 360 1 360 353 339 323 310 291 271 266 257 239 227 227 252 225
232 261 264 264 269 270 267 260 247 234 232 250 272 285 290 312 292 296 313 335 350 346 354 2 8 15 15 15 14 13 11 6 357 347 319 295 279 251 244 230 209 211 221 225
208 273 327 283 277 276 272 261 243 232 250 250 263 279 272 241 262 284 308 331 340 343 353 360 8 17 23 25 26 27 28 30 20 20 36 357 242 158 165 182 237 216 197 176
182 236 285 269 342 314 272 240 203 206 203 211 221 242 151 216 231 286 308 329 330 337 350 357 6 11 25 32 35 44 51 59 66 74 86 95 109 131 132 164 159 163 150 148
161 177 210 290 309 252 289 194 209 226 252 215 255 227 197 241 244 272 285 319 327 336 351 3 6 12 25 35 42 51 62 65 73 76 89 98 101 114 128 137 135 136 129 125
202 187 240 266 274 301 282 185 197 201 291 235 228 243 208 204 267 256 255 312 325 345 357 10 14 10 19 32 40 47 57 62 67 70 77 86 90 102 110 114 116 114 117 116
160 241 223 174 252 257 13 139 146 146 278 158 192 198 169 156 244 102 223 263 322 357 7 17 22 21 19 30 43 43 49 54 60 66 70 77 81 84 88 90 86 91 92 98
168 197 223 218 262 274 259 150 151 196 317 167 180 174 167 192 258 169 185 194 143 21 17 19 22 23 27 26 37 53 57 61 58 62 70 77 83 87 95 101 101 104 108 112
178 172 197 188 219 270 143 124 205 25 161 185 180 182 188 193 187 187 188 193 186 8 14 18 20 21 23 27 28 41 52 65 69 68 74 81 86 93 99 104 109 110 111 110
228 211 188 202 216 127 193 244 212 248 227 204 195 196 198 196 197 193 195 204 206 243 348 4 11 16 19 23 32 38 50 61 69 79 87 92 93 96 98 100 98 100 101 107
227 175 231 155 233 239 241 241 245 239 236 239 211 205 201 203 203 199 202 209 221 239 296 342 0 9 17 28 30 34 41 50 65 75 82 92 100 101 99 92 87 88 89 80
154 156 205 255 271 274 267 252 255 247 238 233 216 211 209 207 206 204 207 214 225 233 255 286 333 3 17 25 33 39 40 44 51 61 72 79 88 93 94 98 90 81 97 94
184 216 212 249 257 247 266 273 282 236 239 228 219 211 209 211 209 207 212 219 229 235 243 254 284 356 22 31 32 37 46 54 59 59 55 58 64 79 86 88 75 67 53 41